Regional Weather Roundup
Issued by NWS Green Bay, WI

Home | Current Version | Previous Version | Graphics & Text | Print | Product List | Glossary Off
Versions: 1 2 3 4 5 6 7 8 9 10 11 12 13 14 15 16 17 18 19 20 21 22 23 24 25 26 27 28 29 30 31 32 33 34 35 36 37 38 39 40 41 42 43 44 45 46 47 48 49 50

402
ASUS43 KGRB 221500
RWRGRB

NORTH-CENTRAL AND NORTHEAST WISCONSIN REGIONAL WEATHER ROUNDUP
NATIONAL WEATHER SERVICE GREEN BAY WI
900 AM CST WED FEB 22 2017

WIZ005-009-010>012-018-019-221600-
NORTH CENTRAL WISCONSIN

CITY           SKY/WX    TMP DP  RH WIND       PRES   REMARKS
IRONWOOD       CLOUDY    40  37  89 CALM      29.65R
MANITOWISH WTR NOT AVBL
ARBOR VITAE    NOT AVBL
EAGLE RIVER    NOT AVBL
LAND O LAKES   CLOUDY    42  35  77 CALM      29.64F
RHINELANDER    CLOUDY    45  38  76 SE3       29.62S
PHILLIPS       PTSUNNY   41  38  90 CALM      29.59F
ANTIGO         NOT AVBL
TOMAHAWK       NOT AVBL
MERRILL        NOT AVBL
$$

WIZ013-073-221600-
NORTHEAST WISCONSIN

CITY           SKY/WX    TMP DP  RH WIND       PRES   REMARKS
IRON MOUNTAIN  MOSUNNY   43  34  70 CALM      29.62F
MARINETTE      CLOUDY    46  39  76 SW7       29.66F
OCONTO         CLOUDY    41  38  89 E8        29.61F
$$

WIZ017-030-035>037-045-221600-
CENTRAL WISCONSIN

CITY           SKY/WX    TMP DP  RH WIND       PRES   REMARKS
MEDFORD        NOT AVBL
WAUSAU         CLOUDY    44  37  76 SE8       29.58S
MOSINEE        MOSUNNY   45  39  81 SE3       29.62F
MARSHFIELD     MOSUNNY   47  36  65 S5        29.58F
WISC RAPIDS    MOSUNNY   54  39  57 SW7       29.61F
STEVENS POINT  NOT AVBL
WAUPACA        CLOUDY    49  44  85 SE3       29.63F
SHAWANO        CLOUDY    46  40  80 S3        29.63F
CLINTONVILLE   PTSUNNY   46  41  81 S5        29.63F
WAUTOMA        CLOUDY    51  44  77 S6        29.64F
$$

WIZ038-039-048-051-221600-
FOX VALLEY

CITY           SKY/WX    TMP DP  RH WIND       PRES   REMARKS
NWS GREEN BAY  CLOUDY    46  43  89 S6        29.66F
APPLETON       PTSUNNY   46  45  93 S7        28.65F
OSHKOSH        MOSUNNY   50  46  86 S15       29.65F
FOND DU LAC    MOSUNNY   54  46  74 S9        29.66F
$$

WIZ022-050-052-221600-
EAST CENTRAL WISCONSIN

CITY           SKY/WX    TMP DP  RH WIND       PRES   REMARKS
EPHRAIM        NOT AVBL
WASHINGTON ISL NOT AVBL
STURGEON BAY   MOSUNNY   47  42  83 S5        29.67F
MANITOWOC      NOT AVBL
SHEBOYGAN      MOSUNNY   55  47  74 SW10      29.68F
$$

LMZ563-521-522-541>543-221600-
LAKESHORE

STATION/POSITION TIME  TEMP    WIND        PRES    VSBY  WAVE
                       AIR SEA DIR/SP/G                  HT/PER
                 (UTC) (F)     (DEG/KT/KT) (MB)    (MI)  (FT/S)
SHEBOYGAN LKSHOR 1400   38     170/ 15/ 16 1006.1F
KEWAUNEE LKSHORE 1430   37     170/  9/ 10 1004.9F
NORTHPORT PIER   1440   44     170/  3/  8 1004.4F
SISTER BAY LKSHO 1405   39     170/  6/  9   N/A
CHAMBERS ISLAND  1440   45     180/  6/ 12 1004.1F
MENOMINEE LKSHOR 1430   41     170/  7/  9 1003.6F
$$




USA.gov is the U.S. government's official web portal to all federal, state and local government web resources and services.